Regional Weather Roundup
Issued by NWS Wakefield, VA

Home | Current Version | Previous Version | Graphics & Text | Print | Product List | Glossary On
Versions: 1 2 3 4 5 6 7 8 9 10 11 12 13 14 15 16 17 18 19 20 21 22 23 24 25 26 27 28 29 30 31 32 33 34 35 36 37 38 39 40 41 42 43 44 45 46 47 48 49 50
000
ASUS41 KAKQ 311412
RWRAKQ

REGIONAL WEATHER ROUNDUP
NATIONAL WEATHER SERVICE WAKEFIELD VA
1000 AM EDT MON AUG 31 2015

Note: "fair" indicates few or no clouds below 12,000 feet with no
significant weather and/or obstructions to visibility. * = Denotes
station may not report precipitation (e.g., rain,snow,etc.),
thunder or fog.

VAZ042-051-052>054-056-311500-
NORTHERN VIRGINIA

CITY           SKY/WX    TMP DP  RH WIND       PRES   REMARKS
WASH NATIONAL  CLOUDY    80  67  64 S7        30.10R
DULLES         CLOUDY    78  68  71 NW7       30.11R
FORT BELVOIR   CLOUDY    78  68  72 S3        30.10S
QUANTICO       CLOUDY    76  67  73 SW3       30.12R
FREDERICKSBRG* CLOUDY    80  68  67 W3        30.11R
STAFFORD*      LGT RAIN  74  67  79 CALM      30.16R
WARRENTON      CLOUDY    77  70  78 SW3       30.11R
CULPEPER*      CLOUDY    74  67  78 CALM      30.12S
MANASSAS*      SUNNY     75  70  83 CALM      30.10S
LEESBURG*      DRIZZLE   75  73  94 SW3       30.12R
WINCHESTER     CLOUDY    79  63  57 W6        30.12R
FRONT ROYAL*   PTSUNNY   75  66  73 CALM      30.12R
LURAY*         FAIR      73  63  68 CALM      30.13S
$$

VAZ048-049-060>072-079>083-311500-
CENTRAL AND SOUTH CENTRAL VIRGINIA

CITY           SKY/WX    TMP DP  RH WIND       PRES   REMARKS
RICHMOND       CLOUDY    78  65  63 S9        30.12S
CHESTERFIELD*  FAIR      75  59  57 S6        30.13F
PETERSBURG*    LGT RAIN  72  72 100 S6        30.14S
HANOVER        CLOUDY    77  66  68 SW6       30.13S
TAPPAHANNOCK*  CLOUDY    79  65  63 CALM      30.12S
QUINTON*       PTSUNNY   75  69  81 S3        30.13R
CHARLOTTSVILLE CLOUDY    73  67  81 S3        30.13R
GORDONSVILLE*  FAIR      73  69  87 SW5       30.12R
ORANGE*        CLOUDY    73  70  88 S5        30.13R
LOUISA*        CLOUDY    75  66  73 SW5       30.11S
BUMPASS*       FAIR      75  67  77 SE5       30.12S
FARMVILLE*     CLOUDY    71  71 100 S6        30.12R
CREWE*         PTSUNNY  N/A N/A N/A SE3       30.12F
FORT PICKETT*  FAIR      69  68  96 S5        30.13F
CHASE CITY*    CLOUDY    71  71 100 CALM      30.15R
CLARKSVILLE*   PTSUNNY   70  68  94 CALM      30.13S
SOUTH HILL*    CLOUDY    69  68  98 CALM      30.19S
LAWRENCEVILLE* CLOUDY    70  70 100 CALM      30.13S
EMPORIA*       HVY RAIN  70  68  94 SE3       30.15S
$$

VAZ088>098-311500-
SOUTHEAST VIRGINIA

CITY           SKY/WX    TMP DP  RH WIND       PRES   REMARKS
NORFOLK        CLOUDY    79  66  64 SW6       30.13R
VIRGINIA BEACH CLOUDY    80  69  69 S5        30.12S
NORFOLK NAVAL  CLOUDY    78  67  68 SW7       30.14S
WEST POINT*    CLOUDY    80  66  62 SW5       30.14S
SALUDA*        CLOUDY    75  69  81 W3        30.12R
NEWPORT NEWS   CLOUDY    78  66  66 SW5       30.13R
LANGLEY AFB    CLOUDY    78  67  69 SW6       30.12R
FORT EUSTIS    CLOUDY    77  66  68 W3        30.11S
WILLIAMSBURG*  CLOUDY    79  70  73 CALM      30.14R
HR EXEC AP*      N/A     73  68  83 SW5       30.16R
FRANKLIN*      LGT RAIN  71  69  94 S3        30.15R
WAKEFIELD      LGT RAIN  73  68  84 SW3       30.14R
$$

VAZ020-022-025-037-045-311500-
WEST CENTRAL AND SOUTHWEST VIRGINIA

CITY           SKY/WX    TMP DP  RH WIND       PRES   REMARKS
STAUNTON*      CLOUDY    75  64  69 S5        30.17R
WAYNESBORO*    CLOUDY    73  63  71 CALM      30.16R
HOT SPRINGS VA CLOUDY    67  57  69 W5        30.26S
LYNCHBURG      CLOUDY    73  63  70 SW3       30.16R
DANVILLE       CLOUDY    74  68  81 CALM      30.15R
SOUTH BOSTON*  FAIR      69  67  95 CALM      30.14S
MARTINSVILLE   PTSUNNY   75  69  81 E3        30.17S
ROANOKE        PTSUNNY   75  65  70 SE5       30.17S
BLACKSBURG     PTSUNNY   73  66  78 CALM      30.22S
DUBLIN*        CLOUDY    74  65  74 CALM      30.20S
MARION*        CLOUDY    74  62  67 CALM      30.24S
HILLSVILLE*    PTSUNNY   68  63  83 N3        30.21R
RICHLANDS*     CLOUDY    68  34  28 NW6       30.24R
WISE*          MOSUNNY   70  57  64 W3        30.24R
ABINGDON*      MOSUNNY   71  62  74 CALM      30.21R
$$

MDZ021>025-VAZ099-100-311500-
SOUTHERN MARYLAND AND THE DELMARVA PENINSULA

CITY           SKY/WX    TMP DP  RH WIND       PRES   REMARKS
PATUXENT RIVER CLOUDY    80  67  64 SW6       30.09S
BAY BRIDGE APT   N/A     77  64  65 SW6       30.09R
LEONARDTOWN    NOT AVBL
DOVER          PTSUNNY   81  71  71 SW8       30.07R
GEORGETOWN     PTSUNNY   80  70  71 VRB6      30.10R
EASTON         SUNNY     81  70  69 SW7       30.13R
CAMBRIDGE      PTSUNNY   81  68  65 NW6       30.09R
SALISBURY      CLOUDY    79  70  74 SW9       30.10R
OCEAN CITY     LGT RAIN  78  71  79 SW9       30.10S
WALLOPS ISLAND CLOUDY    81  72  74 SW7       30.11S
ACCOMACK*      CLOUDY    77  64  65 W3        30.12R
$$

NCZ012>017-030>032-311500-
NORTH CENTRAL AND EASTERN NORTH CAROLINA

CITY           SKY/WX    TMP DP  RH WIND       PRES   REMARKS
ROANOKE RAPIDS DRIZZLE   68  68 100 CALM      30.16R
RALEIGH        CLOUDY    69  67  93 E7        30.13S FOG
ELIZABETH CITY CLOUDY    80  68  66 N3        30.13S
AHOSKIE*       HVY RAIN  69  67  95 CALM      30.15R
EDENTON*       CLOUDY    74  68  81 CALM      30.14R
CURRITUCK*     CLOUDY    80  65  61 CALM      30.14R
KILL DEVIL HLS CLOUDY    81  69  67 CALM      30.12S
MANTEO         CLOUDY    78  70  76 E3        30.14R
CAPE HATTERAS  CLOUDY    80  74  81 E3        30.13R
TARBORO*       RAIN      69  67  94 N3        30.16R
GOLDSBORO      RAIN      70  70 100 VRB2      30.13R FOG
WASHINGTON     LGT RAIN  73  68  84 E3        30.13R
GREENVILLE     LGT RAIN  70  70 100 NE9       30.15R
NEW BERN       CLOUDY    79  71  76 E6        30.11F
WILMINGTON     RAIN      76  75  97 SW5       30.10R FOG
$$

VAZ048-311500-
ELSEWHERE

CITY           SKY/WX    TMP DP  RH WIND       PRES   REMARKS
HARRISBURG PA  PTSUNNY   77  67  71 NW6       30.08S
BALTIMORE      PTSUNNY   81  66  60 W7        30.08S
ANNAPOLIS      PTSUNNY   78  66  66 S5        30.08S
ANDREWS AFB    CLOUDY    79  66  65 SW8       30.10R
PHILADELPHIA   CLOUDY    80  68  66 W8        30.07S
HENDERSON NC   DRIZZLE   68  65  90 SE5       30.15R
GREENSBORO     LGT RAIN  70  68  93 E6        30.14S FOG
ROCKY MOUNT    RAIN      70  69  97 NE7       30.14S FOG
$$

VAZ100-311500-
MARINE

STATION/POSITION TIME  TEMP    WIND        PRES    WAVE   SWELL
                       AIR SEA DIR/SP/G            HT/PER HT/PER
                 (UTC) (F)     (DEG/KT/KT) (MB)    (FT/S) (FT/S)
15NM E FENWICK I 1350   78 78  220/ 12/ 14 1018.7F   2/ 9   2/ 9
GOOSES REEF MD   1300   78 79  230/ 12/ 14 1019.7R
POTOMAC MD       1300   77 79  230/  8/ 14 1018.1R   1
STINGRAY PT      1300   77 79  240/  8/ 10 1019.9R   0
JAMESTOWN VA     1300   75 80  180/  6/ 10   N/A
CHESAPEAKE LGHT  1300   77     230/  6/  7 1020.9R
CAPE HENRY BUOY  1328      79                N/A     3/10
1ST LANDING BUOY 1300      79              1019.5R   2/ 5
CAPE CHARLES BUO 1326      78                N/A     2/ 9   2/ 9
OFFSHORE WE BUOY 1311      78                N/A     3/10   3/10
64NM E OF VA BCH 1350   78 78  250/  6/  8 1019.9R   3/10   3/10
44100 DUCK FRF   1324      78                N/A     3/10   2/11
44056 DUCK FRF   1311      79                N/A     2/10   2/11
DIAMOND SHLS NC  1350   82 84  150/  4/  6 1020.4R   3/10   3/10
CAPE LOOKOUT NC  1400   79     110/ 11/ 12 1019.3F
$$


USA.gov is the U.S. government's official web portal to all federal, state and local government web resources and services.